When you browse on this site, cookies collect data to enhance your experience and personalize the content and advertising you see.
Visit our Privacy Policy to learn more. By continuing to use the site, you agree to this use of cookies and data.
  • In Österreich
  • Länderverzeichnis
  • Für 7 Tage
  • Wassertemperatur
  • Wetterkarte
  • News
  • Widgets
  • user-avatar
    Anmelden

    Stündliche Wetter San Miguel Vindho

    Heute, 5 Juni, Freitag

    Zeit Temperatur Niederschläge Wind Luftdruck Luftfeuchtigkeit
    00:00 +15°C° 0 mm 0 m/S 593 mmHg 92%
    01:00 +15°C° 0 mm 0 m/S 592 mmHg 93%
    02:00 +14°C° 0 mm 0 m/S 592 mmHg 94%
    03:00 +14°C° 0 mm 0 m/S 592 mmHg 93%
    04:00 +14°C° 0 mm 0 m/S 592 mmHg 93%
    05:00 +14°C° 0 mm 0 m/S 592 mmHg 93%
    06:00 +18°C° 0 mm 1 m/S 593 mmHg 82%
    07:00 +20°C° 0 mm 1 m/S 594 mmHg 71%
    08:00 +22°C° 0 mm 1 m/S 595 mmHg 61%
    09:00 +24°C° 0 mm 2 m/S 595 mmHg 51%
    10:00 +26°C° 0 mm 3 m/S 596 mmHg 41%
    11:00 +27°C° 0 mm 4 m/S 596 mmHg 31%
    12:00 +28°C° 0 mm 4 m/S 596 mmHg 30%
    13:00 +29°C° 0 mm 5 m/S 596 mmHg 29%
    14:00 +29°C° 0 mm 6 m/S 595 mmHg 28%
    15:00 +28°C° 0 mm 6 m/S 595 mmHg 36%
    16:00 +26°C° 0 mm 7 m/S 594 mmHg 43%
    17:00 +23°C° 0 mm 7 m/S 593 mmHg 51%
    18:00 +22°C° 0 mm 6 m/S 593 mmHg 59%
    19:00 +20°C° 0 mm 4 m/S 593 mmHg 67%
    20:00 +18°C° 0 mm 3 m/S 593 mmHg 76%
    21:00 +17°C° 0 mm 2 m/S 593 mmHg 80%
    22:00 +16°C° 0 mm 1 m/S 593 mmHg 85%
    23:00 +16°C° 0 mm 1 m/S 593 mmHg 89%

    Morgen, 6 Juni, Samstag

    Zeit Temperatur Niederschläge Wind Luftdruck Luftfeuchtigkeit
    00:00 +15°C° 0 mm 1 m/S 593 mmHg 90%
    01:00 +14°C° 0 mm 0 m/S 592 mmHg 91%
    02:00 +13°C° 0 mm 0 m/S 592 mmHg 92%
    03:00 +13°C° 0 mm 0 m/S 592 mmHg 91%
    04:00 +13°C° 0 mm 0 m/S 592 mmHg 90%
    05:00 +13°C° 0 mm 1 m/S 592 mmHg 89%
    06:00 +15°C° 0 mm 0 m/S 593 mmHg 76%
    07:00 +18°C° 0 mm 0 m/S 594 mmHg 63%
    08:00 +20°C° 0 mm 0 m/S 595 mmHg 51%
    09:00 +24°C° 0 mm 1 m/S 596 mmHg 43%
    10:00 +26°C° 0 mm 2 m/S 596 mmHg 36%
    11:00 +28°C° 0 mm 2 m/S 597 mmHg 29%
    12:00 +28°C° 0 mm 3 m/S 596 mmHg 27%
    13:00 +29°C° 0 mm 4 m/S 596 mmHg 25%
    14:00 +30°C° 0 mm 5 m/S 596 mmHg 24%
    15:00 +28°C° 0 mm 5 m/S 595 mmHg 29%
    16:00 +27°C° 0 mm 6 m/S 594 mmHg 34%
    17:00 +26°C° 0 mm 6 m/S 594 mmHg 39%
    18:00 +23°C° 0 mm 5 m/S 594 mmHg 53%
    19:00 +20°C° 0 mm 3 m/S 593 mmHg 67%
    20:00 +18°C° 0 mm 2 m/S 593 mmHg 81%
    21:00 +19°C° 0 mm 1 m/S 593 mmHg 84%
    22:00 +18°C° 0 mm 1 m/S 593 mmHg 87%
    23:00 +16°C° 0 mm 1 m/S 593 mmHg 91%

    übermorgen, 7 Juni, Sonntag

    Zeit Temperatur Niederschläge Wind Luftdruck Luftfeuchtigkeit
    00:00 +15°C° 0 mm 0 m/S 593 mmHg 90%
    01:00 +15°C° 0 mm 0 m/S 592 mmHg 90%
    02:00 +14°C° 0 mm 0 m/S 592 mmHg 90%
    03:00 +14°C° 0 mm 0 m/S 592 mmHg 89%
    04:00 +14°C° 0 mm 0 m/S 592 mmHg 88%
    05:00 +14°C° 0 mm 0 m/S 592 mmHg 87%
    06:00 +19°C° 0 mm 1 m/S 593 mmHg 76%
    07:00 +21°C° 0 mm 1 m/S 594 mmHg 65%
    08:00 +23°C° 0 mm 1 m/S 595 mmHg 54%
    09:00 +25°C° 0 mm 2 m/S 596 mmHg 46%
    10:00 +27°C° 0 mm 2 m/S 596 mmHg 37%
    11:00 +29°C° 0 mm 3 m/S 596 mmHg 29%
    12:00 +29°C° 0 mm 4 m/S 596 mmHg 29%
    13:00 +29°C° 0 mm 4 m/S 595 mmHg 29%
    14:00 +29°C° 0 mm 4 m/S 595 mmHg 29%
    15:00 +28°C° 0 mm 4 m/S 594 mmHg 32%
    16:00 +27°C° 0 mm 4 m/S 594 mmHg 34%
    17:00 +27°C° 0 mm 4 m/S 594 mmHg 37%
    18:00 +25°C° 0 mm 3 m/S 594 mmHg 43%
    19:00 +24°C° 0 mm 2 m/S 594 mmHg 49%
    20:00 +23°C° 0 mm 1 m/S 594 mmHg 54%
    21:00 +22°C° 0 mm 1 m/S 594 mmHg 59%
    22:00 +21°C° 0 mm 1 m/S 593 mmHg 64%
    23:00 +20°C° 0 mm 1 m/S 593 mmHg 69%

    8 Juni, Montag

    Zeit Temperatur Niederschläge Wind Luftdruck Luftfeuchtigkeit
    00:00 +20°C° 0 mm 1 m/S 593 mmHg 68%
    01:00 +20°C° 0 mm 1 m/S 593 mmHg 68%
    02:00 +20°C° 0 mm 1 m/S 593 mmHg 67%
    03:00 +20°C° 0 mm 1 m/S 593 mmHg 69%
    04:00 +19°C° 0 mm 1 m/S 593 mmHg 72%
    05:00 +19°C° 0 mm 1 m/S 593 mmHg 74%
    06:00 +21°C° 0 mm 1 m/S 594 mmHg 66%
    07:00 +23°C° 0 mm 1 m/S 595 mmHg 58%
    08:00 +25°C° 0 mm 1 m/S 596 mmHg 50%
    09:00 +27°C° 0 mm 2 m/S 596 mmHg 44%
    10:00 +28°C° 0 mm 2 m/S 597 mmHg 37%
    11:00 +30°C° 0 mm 3 m/S 597 mmHg 31%
    12:00 +30°C° 0 mm 3 m/S 596 mmHg 31%
    13:00 +30°C° 0 mm 3 m/S 596 mmHg 30%
    14:00 +30°C° 0 mm 3 m/S 595 mmHg 30%
    15:00 +29°C° 0 mm 3 m/S 595 mmHg 31%
    16:00 +29°C° 0 mm 3 m/S 595 mmHg 33%
    17:00 +28°C° 0 mm 2 m/S 595 mmHg 34%
    18:00 +26°C° 0.3 mm 2 m/S 594 mmHg 44%
    19:00 +24°C° 0.3 mm 1 m/S 594 mmHg 55%
    20:00 +22°C° 0.3 mm 1 m/S 594 mmHg 65%
    21:00 +22°C° 0.2 mm 1 m/S 594 mmHg 67%
    22:00 +21°C° 0.2 mm 1 m/S 594 mmHg 68%
    23:00 +20°C° 0.2 mm 1 m/S 594 mmHg 70%

    9 Juni, Dienstag

    Zeit Temperatur Niederschläge Wind Luftdruck Luftfeuchtigkeit
    00:00 +20°C° 0.1 mm 1 m/S 594 mmHg 72%
    01:00 +19°C° 0.1 mm 1 m/S 593 mmHg 73%
    02:00 +19°C° 0.1 mm 1 m/S 593 mmHg 75%
    03:00 +19°C° 0 mm 1 m/S 593 mmHg 76%
    04:00 +18°C° 0 mm 1 m/S 593 mmHg 77%
    05:00 +18°C° 0 mm 1 m/S 593 mmHg 78%
    06:00 +20°C° 0 mm 1 m/S 594 mmHg 69%
    07:00 +21°C° 0 mm 0 m/S 596 mmHg 59%
    08:00 +23°C° 0 mm 0 m/S 597 mmHg 49%
    09:00 +27°C° 0 mm 1 m/S 597 mmHg 41%
    10:00 +29°C° 0 mm 2 m/S 598 mmHg 34%
    11:00 +30°C° 0 mm 3 m/S 598 mmHg 26%
    12:00 +32°C° 0 mm 4 m/S 598 mmHg 25%
    13:00 +32°C° 0 mm 5 m/S 597 mmHg 23%
    14:00 +33°C° 0 mm 6 m/S 597 mmHg 22%
    15:00 +30°C° 0 mm 6 m/S 596 mmHg 23%
    16:00 +29°C° 0 mm 7 m/S 596 mmHg 25%
    17:00 +28°C° 0 mm 7 m/S 595 mmHg 26%
    18:00 +26°C° 0 mm 6 m/S 595 mmHg 32%
    19:00 +23°C° 0 mm 4 m/S 594 mmHg 38%
    20:00 +21°C° 0 mm 2 m/S 594 mmHg 43%
    21:00 +20°C° 0 mm 2 m/S 594 mmHg 49%
    22:00 +20°C° 0 mm 1 m/S 594 mmHg 55%
    23:00 +19°C° 0 mm 1 m/S 594 mmHg 61%

    10 Juni, Mittwoch

    Zeit Temperatur Niederschläge Wind Luftdruck Luftfeuchtigkeit
    00:00 +19°C° 0 mm 1 m/S 594 mmHg 68%
    01:00 +18°C° 0 mm 1 m/S 594 mmHg 74%
    02:00 +15°C° 0 mm 0 m/S 593 mmHg 81%
    03:00 +15°C° 0 mm 0 m/S 593 mmHg 82%
    04:00 +15°C° 0 mm 0 m/S 593 mmHg 84%
    05:00 +14°C° 0 mm 0 m/S 593 mmHg 86%
    06:00 +19°C° 0 mm 1 m/S 595 mmHg 72%
    07:00 +20°C° 0 mm 2 m/S 596 mmHg 59%
    08:00 +24°C° 0 mm 3 m/S 597 mmHg 45%
    09:00 +25°C° 0 mm 4 m/S 597 mmHg 38%
    10:00 +27°C° 0 mm 5 m/S 598 mmHg 31%
    11:00 +29°C° 0 mm 6 m/S 598 mmHg 23%
    12:00 +29°C° 0 mm 6 m/S 598 mmHg 25%
    13:00 +29°C° 0 mm 7 m/S 597 mmHg 26%
    14:00 +29°C° 0 mm 8 m/S 597 mmHg 27%
    15:00 +27°C° 0 mm 8 m/S 596 mmHg 34%
    16:00 +26°C° 0 mm 8 m/S 596 mmHg 40%
    17:00 +23°C° 0 mm 8 m/S 595 mmHg 47%
    18:00 +21°C° 0 mm 6 m/S 595 mmHg 57%
    19:00 +20°C° 0 mm 4 m/S 595 mmHg 67%
    20:00 +18°C° 0 mm 2 m/S 595 mmHg 77%
    21:00 +17°C° 0 mm 2 m/S 595 mmHg 82%
    22:00 +18°C° 0 mm 1 m/S 595 mmHg 86%
    23:00 +16°C° 0 mm 1 m/S 595 mmHg 90%
    Mehr zeigen